Ardabil, Iran

7:47 PM +0330 on October 14, 2019 (GMT +0330)
Ardabil

Weather History for OITL - August, 2019

Change the Weather History Date:

Friday, August 30, 2019

  Actual Average Record
Temperature  
Mean Temperature 64 °F -  
Max Temperature 69 °F - - ()
Min Temperature 57 °F - - ()
Degree Days  
Heating Degree Days 1    
Growing Degree Days 14 (Base 50)    
Moisture  
Dew Point 59 °F    
Average Humidity 85    
Maximum Humidity 100    
Minimum Humidity 68    
Precipitation  
Precipitation 0.00 in - - ()
Sea Level Pressure  
Sea Level Pressure 30.11 in    
Wind  
Wind Speed 16 mph ()    
Max Wind Speed 29 mph    
Max Gust Speed -    
Visibility 5.0 miles    
Events Fog , Thunderstorm    
T = Trace of Precipitation, MM = Missing Value Source: Averaged Metar Reports

Daily Weather History Graph

Daily Weather History Graph

Search for Another Location

Airport or City:

Astronomy

Aug. 30, 2019 Rise Set
Actual Time 6:43 AM +0430 7:49 PM +0430
Civil Twilight 6:16 AM +0430 8:17 PM +0430
Nautical Twilight 5:43 AM +0430 8:49 PM +0430
Astronomical Twilight 5:10 AM +0430 9:23 PM +0430
Moon 6:16 AM +0430 (8/30) 8:11 PM +0430 (8/30)
Length of Visible Light 14h 00m
Length of Day
13h 06m
Waning Crescent, 0% of the Moon is Illuminated
Aug 30
Waning Crescent
Aug 30
New
Sep 6
First Quarter
Sep 14
Full
Sep 22
Last Quarter

Hourly Weather History & Observations

Time (+0430) Temp. Dew Point Humidity Pressure Visibility Wind Dir Wind Speed Gust Speed Precip Events Conditions
12:20 AM 60.8 °F 60.8 °F 100% 30.18 in 2.5 mi ESE 13.8 mph - N/A Fog Fog
1:21 AM 60.8 °F 60.8 °F 100% 30.18 in 1.2 mi East 13.8 mph - N/A Fog Fog
2:21 AM 60.8 °F 60.8 °F 100% 30.18 in 1.2 mi ENE 9.2 mph - N/A Fog Fog
3:20 AM 60.8 °F 59.0 °F 94% 30.18 in 3.1 mi NE 11.5 mph - N/A Fog Fog
4:20 AM 60.8 °F 59.0 °F 94% 30.18 in 2.5 mi ENE 18.4 mph - N/A   Overcast
5:21 AM 59.0 °F 59.0 °F 100% 30.18 in 2.5 mi ENE 13.8 mph - N/A   Overcast
6:22 AM 59.0 °F 59.0 °F 100% 30.18 in 2.5 mi ENE 16.1 mph - N/A   Overcast
7:23 AM 59.0 °F 57.2 °F 94% 30.18 in 2.5 mi ENE 16.1 mph - N/A   Light Drizzle
8:23 AM 60.8 °F 57.2 °F 88% 30.15 in 3.7 mi ENE 18.4 mph - N/A Fog Fog
8:30 AM 60.8 °F 57.2 °F 88% 30.15 in 3.7 mi ENE 18.4 mph - N/A Fog Fog
9:22 AM 60.8 °F 59.0 °F 94% 30.15 in 6.2 mi NE 18.4 mph - N/A   Mostly Cloudy
9:30 AM 60.8 °F 59.0 °F 94% 30.15 in 6.2 mi NE 18.4 mph - N/A   Mostly Cloudy
10:22 AM 64.4 °F 59.0 °F 83% 30.15 in 6.2 mi NE 16.1 mph - N/A   Mostly Cloudy
10:30 AM 64.4 °F 59.0 °F 83% 30.15 in 6.2 mi NE 16.1 mph - N/A   Mostly Cloudy
11:20 AM 64.4 °F 59.0 °F 83% 30.15 in 6.2 mi ENE 16.1 mph - N/A   Mostly Cloudy
11:30 AM 64.4 °F 59.0 °F 83% 30.15 in 6.2 mi ENE 16.1 mph - N/A   Mostly Cloudy
12:00 PM 66.2 °F 59.0 °F 78% 30.12 in 6.2 mi ENE 16.1 mph - N/A   Mostly Cloudy
12:23 PM 68.0 °F 59.0 °F 73% 30.12 in 6.2 mi ENE 11.5 mph - N/A   Mostly Cloudy
1:00 PM 69.8 °F 59.0 °F 68% 30.12 in 6.2 mi NE 19.6 mph - N/A   Partly Cloudy
1:22 PM 68.0 °F 59.0 °F 73% 30.09 in 6.2 mi ENE 21.9 mph - N/A   Partly Cloudy
1:30 PM 68.0 °F 59.0 °F 73% 30.09 in 6.2 mi ENE 21.9 mph - N/A   Partly Cloudy
2:22 PM 68.0 °F 59.0 °F 73% 30.09 in 6.2 mi ENE 24.2 mph - N/A   Partly Cloudy
3:20 PM 68.0 °F 59.0 °F 73% 30.06 in 6.2 mi ENE 28.8 mph - N/A   Partly Cloudy
3:30 PM 68.0 °F 59.0 °F 73% 30.06 in 6.2 mi ENE 28.8 mph - N/A   Partly Cloudy
4:00 PM 68.0 °F 59.0 °F 73% 30.06 in 6.2 mi ENE 28.8 mph - N/A   Partly Cloudy
4:20 PM 66.2 °F 59.0 °F 78% 30.04 in 6.2 mi ENE 28.8 mph - N/A   Partly Cloudy
4:30 PM 66.2 °F 59.0 °F 78% 30.04 in 6.2 mi ENE 28.8 mph - N/A   Partly Cloudy
5:00 PM 66.2 °F 59.0 °F 78% 30.04 in 6.2 mi ENE 24.2 mph - N/A   Partly Cloudy
5:22 PM 66.2 °F 59.0 °F 78% 30.04 in 6.2 mi ENE 21.9 mph - N/A Fog Partly Cloudy
5:30 PM 66.2 °F 59.0 °F 78% 30.04 in 6.2 mi ENE 21.9 mph - N/A Fog Partly Cloudy
6:00 PM 62.6 °F 57.2 °F 82% 30.04 in 6.2 mi ENE 26.5 mph - N/A Fog Partly Cloudy
6:22 PM 62.6 °F 57.2 °F 82% 30.04 in 6.2 mi ENE 21.9 mph - N/A Fog Partly Cloudy
7:22 PM 60.8 °F 57.2 °F 88% 30.04 in 6.2 mi ENE 24.2 mph - N/A Fog Partly Cloudy
8:21 PM 59.0 °F 57.2 °F 94% 30.06 in 5.0 mi ENE 19.6 mph - N/A Fog Fog
10:26 PM 59.0 °F 57.2 °F 94% 30.09 in 5.0 mi East 16.1 mph - N/A Fog , Thunderstorm Thunderstorm
11:23 PM 57.2 °F 57.2 °F 100% 30.09 in 0.6 mi NE 18.4 mph - N/A Fog Fog